Location: Unspecified
(51.5147°N, 7.4673°E)
Time: 20:00:44
(UTC+01:00)

Transit 2A Rocket - All Passes

Search period start: 18 February 2026 00:00
Search period end: 28 February 2026 00:00
Orbit: 582 x 901 km, 66.7° (Epoch: 18 February)

Date Brightness Start Highest point End Pass type
(mag) Time Alt. Az. Time Alt. Az. Time Alt. Az.
18 Feb - 00:05:07 10° NNW 00:10:40 51° NE 00:15:44 10° ESE visible
18 Feb - 01:47:53 10° NW 01:52:57 37° WSW 01:57:34 10° S night (unlit)
18 Feb - 14:46:23 10° ESE 14:48:18 12° E 14:50:14 10° E daylight
18 Feb - 16:23:42 10° SSW 16:29:34 56° ESE 16:35:23 10° NE daylight
18 Feb - 18:06:30 10° WSW 18:12:14 43° NW 18:17:51 10° NNE daylight
18 Feb - 19:51:46 10° WNW 19:56:09 20° NNW 20:00:23 10° NNE visible
18 Feb - 21:36:37 10° NW 21:40:40 19° N 21:44:33 10° NE visible
18 Feb - 23:19:29 10° NNW 23:24:45 36° NE 23:29:36 10° ESE visible
19 Feb - 01:02:01 10° NW 01:07:31 61° WSW 01:12:30 10° SSE visible
19 Feb - 02:47:22 10° W 02:48:39 11° W 02:49:54 10° WSW night (unlit)
19 Feb - 15:38:43 10° S 15:44:08 36° ESE 15:49:30 10° NE daylight
19 Feb - 17:20:23 10° SW 17:26:22 60° NW 17:32:14 10° NE daylight
19 Feb - 19:05:09 10° WNW 19:09:57 24° NNW 19:14:36 10° NNE visible
19 Feb - 20:50:29 10° NW 20:54:23 18° N 20:58:08 10° NE visible
19 Feb - 22:33:49 10° NNW 22:38:42 27° NNE 22:43:15 10° E visible
20 Feb - 00:16:16 10° NW 00:21:56 85° NE 00:27:02 10° SE visible
20 Feb - 01:59:48 10° WNW 02:03:32 19° WSW 02:07:05 10° SSW night (unlit)
20 Feb - 14:54:16 10° SSE 14:58:48 23° ESE 15:03:20 10° ENE daylight
20 Feb - 16:34:34 10° SW 16:40:38 87° NW 16:46:36 10° NE daylight
20 Feb - 18:18:35 10° W 18:23:49 30° NNW 18:28:55 10° NNE visible
20 Feb - 20:04:07 10° NW 20:08:05 18° N 20:11:54 10° NE visible
20 Feb - 21:48:05 10° NNW 21:52:33 22° NNE 21:56:46 10° ENE visible
20 Feb - 23:30:37 10° NW 23:36:11 57° NE 23:41:16 10° ESE visible
21 Feb - 01:13:30 10° NW 01:18:19 32° WSW 01:22:45 10° S night (unlit)
21 Feb - 14:10:46 10° SE 14:13:37 14° ESE 14:16:28 10° ENE daylight
21 Feb - 15:49:04 10° SSW 15:55:01 63° ESE 16:00:54 10° NE daylight
21 Feb - 17:32:10 10° WSW 17:37:48 39° NW 17:43:18 10° NNE daylight
21 Feb - 19:17:34 10° WNW 19:21:48 20° NNW 19:25:54 10° NNE visible
21 Feb - 21:02:13 10° NNW 21:06:19 19° NNE 21:10:14 10° ENE visible
21 Feb - 22:44:58 10° NNW 22:50:18 39° NE 22:55:12 10° ESE visible
22 Feb - 00:27:33 10° NW 00:32:55 53° WSW 00:37:48 10° SSE visible
22 Feb - 15:03:57 10° S 15:09:32 41° ESE 15:15:04 10° NE daylight
22 Feb - 16:45:59 10° WSW 16:51:55 54° NW 16:57:41 10° NE daylight
22 Feb - 18:30:55 10° WNW 18:35:34 23° NNW 18:40:04 10° NNE visible
22 Feb - 20:16:10 10° NW 20:20:03 18° N 20:23:46 10° NE visible
22 Feb - 21:59:20 10° NNW 22:04:18 29° NNE 22:08:55 10° E visible
22 Feb - 23:41:47 10° NW 23:47:23 84° SW 23:52:27 10° SSE visible
23 Feb - 01:25:38 10° WNW 01:28:51 16° WSW 01:31:56 10° SW night (unlit)
23 Feb - 14:19:19 10° SSE 14:24:11 26° ESE 14:29:00 10° ENE daylight
23 Feb - 16:00:04 10° SW 16:06:08 78° NW 16:12:04 10° NE daylight
23 Feb - 17:44:19 10° W 17:49:25 28° NNW 17:54:22 10° NNE daylight
23 Feb - 19:29:51 10° NW 19:33:44 18° N 19:37:29 10° NE visible
23 Feb - 21:13:37 10° NNW 21:18:10 23° NNE 21:22:27 10° ENE visible
23 Feb - 22:56:06 10° NW 23:01:41 64° NE 23:06:45 10° SE visible
24 Feb - 00:39:08 10° NW 00:43:40 27° WSW 00:47:51 10° SSW visible
24 Feb - 13:35:27 10° SE 13:38:57 16° ESE 13:42:25 10° ENE daylight
24 Feb - 15:14:27 10° SSW 15:20:28 72° ESE 15:26:23 10° NE daylight
24 Feb - 16:57:51 10° W 17:03:22 36° NW 17:08:44 10° NNE daylight
24 Feb - 18:43:20 10° NW 18:47:27 19° N 18:51:25 10° NNE visible
24 Feb - 20:27:48 10° NNW 20:31:58 20° NNE 20:35:55 10° ENE visible
24 Feb - 22:10:28 10° NNW 22:15:51 43° NE 22:20:46 10° ESE visible
24 Feb - 23:53:07 10° NW 23:58:19 45° WSW 00:03:04 10° S visible
25 Feb - 14:29:13 10° S 14:34:57 46° ESE 14:40:35 10° NE daylight
25 Feb - 16:11:36 10° WSW 16:17:26 49° NW 16:23:08 10° NNE daylight
25 Feb - 17:56:41 10° WNW 18:01:12 21° NNW 18:05:32 10° NNE daylight
25 Feb - 19:41:48 10° NW 19:45:41 18° N 19:49:25 10° NE visible
25 Feb - 21:24:49 10° NNW 21:29:52 32° NNE 21:34:31 10° E visible
25 Feb - 23:07:17 10° NW 23:12:49 74° SW 23:17:49 10° SSE visible
26 Feb - 00:51:35 10° WNW 00:54:09 14° WSW 00:56:36 10° SW visible
26 Feb - 13:44:26 10° S 13:49:33 30° ESE 13:54:36 10° NE daylight
26 Feb - 15:25:35 10° SW 15:31:37 70° NW 15:37:31 10° NE daylight
26 Feb - 17:10:04 10° W 17:15:01 26° NNW 17:19:49 10° NNE daylight
26 Feb - 18:55:34 10° NW 18:59:23 17° N 19:03:04 10° NE visible
26 Feb - 20:39:08 10° NNW 20:43:46 25° NNE 20:48:06 10° E visible
26 Feb - 22:21:35 10° NW 22:27:10 72° NE 22:32:12 10° SE visible
27 Feb - 00:04:48 10° WNW 00:08:59 23° WSW 00:12:53 10° SSW visible
27 Feb - 13:00:17 10° SSE 13:04:16 19° ESE 13:08:13 10° ENE daylight
27 Feb - 14:39:53 10° SSW 14:45:56 80° SE 14:51:51 10° NE daylight
27 Feb - 16:23:33 10° W 16:28:57 33° NNW 16:34:09 10° NNE daylight
27 Feb - 18:09:05 10° NW 18:13:05 18° N 18:16:56 10° NE daylight
27 Feb - 19:53:22 10° NNW 19:57:35 20° NNE 20:01:35 10° ENE visible
27 Feb - 21:35:56 10° NNW 21:41:22 48° NE 21:46:17 10° ESE visible
27 Feb - 23:18:40 10° NW 23:23:41 39° WSW 23:28:16 10° S visible
